Weather reports worldwide

Advertisment
Yenierenkoy, Cyprus (17550): temperature & dewpoint: 09.08.2020 11:00:00 - 15.08.2020 11:00:00 (EEST)Yenierenkoy, Cyprus (17550): wind speed: 09.08.2020 11:00:00 - 15.08.2020 11:00:00 (EEST)Yenierenkoy, Cyprus (17550): wind direction: 09.08.2020 11:00:00 - 15.08.2020 11:00:00 (EEST)Yenierenkoy, Cyprus (17550): reduced air pressure: 09.08.2020 11:00:00 - 15.08.2020 11:00:00 (EEST)Yenierenkoy, Cyprus (17550): visibility: 09.08.2020 11:00:00 - 15.08.2020 11:00:00 (EEST)
Date & Time tt [°C] td [°C] ff [km/h] ff [kn] dd ppp [hPa] vv [km]
15.08.2020 11:00:00 33,8 8,8 5 3 NW 1003,9 10
15.08.2020 10:00:00 32,4 10,3 15 8 NNE 1003,8 10
15.08.2020 09:00:00 29,9 18,2 8 4 NNE 1003,7 10
15.08.2020 08:00:00 29,0 20,1 8 4 N 1003,7 10
15.08.2020 07:00:00 26,9 19,6 9 5 NNE 1003,5 10
15.08.2020 06:00:00 26,9 19,7 11 6 N 1003,1 10
15.08.2020 05:00:00 26,8 24,7 11 6 N 1002,9 10
15.08.2020 04:00:00 26,6 24,7 0 0 N 1002,6 10
15.08.2020 03:00:00 27,1 23,3 9 5 NNW 1002,7 10
15.08.2020 02:00:00 28,1 20,6 9 5 WNW 1002,8 10
15.08.2020 01:00:00 28,0 21,1 13 7 WNW 1002,9 10
15.08.2020 00:00:00 28,2 21,5 24 13 W 1003,1 10
14.08.2020 23:00:00 28,3 20,3 22 12 WSW 1003,2 10
14.08.2020 22:00:00 28,6 20,2 16 9 NW 1003,2 10
14.08.2020 21:00:00 29,0 17,7 8 4 WNW 1003,0 10
14.08.2020 20:00:00 28,8 23,1 9 5 WNW 1002,8 10
14.08.2020 19:00:00 31,0 21,2 11 6 S 1002,3 10
14.08.2020 18:00:00 32,6 19,3 16 9 SSE 1002,5 10
14.08.2020 17:00:00 35,1 13,7 11 6 NW 1002,5 10
14.08.2020 16:00:00 35,3 13,6 11 6 W 1002,9 10
14.08.2020 15:00:00 35,6 14,7 8 4 WSW 1003,4 10
14.08.2020 14:00:00 34,3 19,1 9 5 WNW 1004,0 10
14.08.2020 13:00:00 - 22,4 50 27 NNE 1004,4 0,7
14.08.2020 12:00:00 32,7 21,6 9 5 WNW 1004,7 10
14.08.2020 11:00:00 31,7 22,4 8 4 WNW 1005,0 10
14.08.2020 10:00:00 30,7 21,3 8 4 NNW 1004,7 10
14.08.2020 09:00:00 29,0 23,9 8 4 NNE 1004,6 10
14.08.2020 08:00:00 27,9 24,3 9 5 N 1004,7 10
14.08.2020 07:00:00 26,3 24,8 8 4 NE 1004,1 8
14.08.2020 06:00:00 26,7 25,1 18 10 NNE 1004,0 8
14.08.2020 05:00:00 27,2 25,5 11 6 NNE 1003,7 8
14.08.2020 04:00:00 27,2 24,5 15 8 W 1003,4 10
14.08.2020 03:00:00 26,8 23,9 21 11 WNW 1003,8 10
14.08.2020 02:00:00 26,9 23,5 24 13 WNW 1003,8 10
14.08.2020 01:00:00 27,0 22,6 37 20 W 1004,2 10
14.08.2020 00:00:00 27,1 23,6 24 13 W 1004,4 10
13.08.2020 23:00:00 27,3 24,3 21 11 NW 1004,6 10
13.08.2020 22:00:00 27,7 23,3 11 6 WNW 1004,9 10
13.08.2020 21:00:00 27,5 23,3 0 0 N 1004,9 10
13.08.2020 20:00:00 29,0 23,3 0 0 N 1004,5 10
13.08.2020 19:00:00 30,7 23,3 8 4 W 1004,2 10
13.08.2020 18:00:00 31,1 23,3 9 5 W 1004,2 10
13.08.2020 17:00:00 34,1 21,4 13 7 W 1004,0 10
13.08.2020 16:00:00 34,4 19,3 8 4 NNW 1004,3 10
13.08.2020 15:00:00 34,7 20,8 13 7 W 1004,9 10
13.08.2020 14:00:00 32,7 21,8 11 6 WNW 1005,5 10
13.08.2020 13:00:00 32,9 22,4 8 4 NNW 1006,0 10
13.08.2020 12:00:00 - - - - - - -
13.08.2020 11:00:00 - - - - - - -
13.08.2020 10:00:00 30,0 24,1 15 8 NW - 10
13.08.2020 09:00:00 27,6 24,1 15 8 NNW - 10
13.08.2020 08:00:00 27,3 24,2 15 8 WNW - 10
13.08.2020 07:00:00 26,7 24,4 15 8 WNW - 10
13.08.2020 06:00:00 26,7 24,7 21 11 W - 10
13.08.2020 05:00:00 26,7 24,5 13 7 WNW - 10
13.08.2020 04:00:00 26,8 24,1 16 9 W - 10
13.08.2020 03:00:00 25,5 18,7 0 0 N - 10
13.08.2020 02:00:00 26,0 17,9 5 3 SSE - 10
13.08.2020 01:00:00 26,8 20,2 8 4 SSW - 10
13.08.2020 00:00:00 26,4 22,8 11 6 WSW - 10
12.08.2020 23:00:00 26,8 23,8 15 8 WNW - 10
12.08.2020 22:00:00 27,2 24,0 11 6 NW - 10
12.08.2020 21:00:00 27,3 23,6 13 7 NW - 10
12.08.2020 20:00:00 27,8 23,8 11 6 WNW - 10
12.08.2020 19:00:00 29,2 22,9 8 4 W - 10
12.08.2020 18:00:00 33,3 20,5 18 10 ESE 1005,7 10
12.08.2020 17:00:00 - - - - - - -
12.08.2020 16:00:00 34,8 21,7 5 3 SSW - 10
12.08.2020 15:00:00 32,7 22,2 0 0 N - 10
12.08.2020 14:00:00 32,5 22,3 0 0 N - 10
12.08.2020 13:00:00 30,5 22,4 8 4 WNW - 10
12.08.2020 12:00:00 30,5 22,4 8 4 WNW - 10
12.08.2020 11:00:00 - - - - - - -
12.08.2020 10:00:00 30,0 21,7 9 5 W - 10
12.08.2020 09:00:00 28,3 21,3 0 0 N - 10
12.08.2020 08:00:00 27,3 21,3 0 0 N - 10
12.08.2020 07:00:00 25,7 22,3 0 0 N - 10
12.08.2020 06:00:00 25,5 21,7 5 3 E - 10
12.08.2020 05:00:00 24,3 17,9 5 3 ESE - 10
12.08.2020 04:00:00 24,3 20,3 0 0 N - 10
12.08.2020 03:00:00 25,0 20,7 0 0 N - 10
12.08.2020 02:00:00 24,3 18,7 0 0 N - 10
12.08.2020 01:00:00 24,7 20,6 8 4 SSE - 10
12.08.2020 00:00:00 26,0 22,4 9 5 W - 10
11.08.2020 23:00:00 26,2 22,2 11 6 WNW - 10
11.08.2020 22:00:00 26,5 22,2 11 6 WNW - 10
11.08.2020 21:00:00 26,5 21,9 13 7 SW - 10
11.08.2020 20:00:00 27,2 21,6 11 6 WNW - 10
11.08.2020 19:00:00 28,5 21,9 13 7 NW - 10
11.08.2020 18:00:00 29,1 22,3 21 11 W - 10
11.08.2020 17:00:00 30,2 22,1 15 8 WNW - 10
11.08.2020 16:00:00 31,0 21,9 11 6 W - 10
11.08.2020 15:00:00 31,2 21,9 13 7 WNW - 10
11.08.2020 14:00:00 30,6 21,9 13 7 W - 10
11.08.2020 13:00:00 30,1 21,8 13 7 W - 10
11.08.2020 12:00:00 30,2 21,8 21 11 W - 10
11.08.2020 11:00:00 29,3 21,5 15 8 WNW - 10
11.08.2020 10:00:00 28,3 21,7 15 8 WNW - 10
11.08.2020 09:00:00 26,8 21,4 11 6 W - 10
11.08.2020 08:00:00 25,6 20,8 0 0 N - 10
11.08.2020 07:00:00 24,4 20,6 0 0 N - 10
11.08.2020 06:00:00 25,7 21,4 8 4 WNW - 10
11.08.2020 05:00:00 25,7 21,8 15 8 WNW - 10
11.08.2020 04:00:00 25,2 21,4 11 6 W - 10
11.08.2020 03:00:00 25,3 21,1 13 7 W - 10
11.08.2020 02:00:00 25,8 21,5 16 9 SSW - 10
11.08.2020 01:00:00 25,8 21,4 15 8 WNW - 10
11.08.2020 00:00:00 26,0 21,2 22 12 W - 10
10.08.2020 23:00:00 26,1 21,0 18 10 W - 10
10.08.2020 22:00:00 26,4 21,7 22 12 W - 10
10.08.2020 21:00:00 26,3 21,6 16 9 W - 10
10.08.2020 20:00:00 26,9 21,8 18 10 WNW - 10
10.08.2020 19:00:00 28,1 21,6 16 9 W - 10
10.08.2020 18:00:00 28,3 21,0 16 9 W - 10
10.08.2020 17:00:00 29,6 21,1 11 6 WNW - 10
10.08.2020 16:00:00 29,5 19,8 15 8 WNW - 10
10.08.2020 15:00:00 31,4 19,3 11 6 WNW - 10
10.08.2020 14:00:00 31,5 19,5 15 8 WNW - 10
10.08.2020 13:00:00 30,6 19,6 24 13 W - 10
10.08.2020 12:00:00 - - - - - - -
10.08.2020 11:00:00 29,2 19,7 16 9 WNW - 10
10.08.2020 10:00:00 28,0 18,6 21 11 WNW - 10
10.08.2020 09:00:00 26,5 19,4 11 6 WNW - 10
10.08.2020 08:00:00 25,9 20,0 9 5 SW - 10
10.08.2020 07:00:00 23,7 19,1 8 4 S - 10
10.08.2020 06:00:00 23,1 18,7 8 4 S - 10
10.08.2020 05:00:00 23,9 19,1 8 4 SE - 10
10.08.2020 04:00:00 25,2 19,5 0 0 N - 10
10.08.2020 03:00:00 25,5 20,0 29 16 W - 10
10.08.2020 02:00:00 25,6 20,1 22 12 NW - 10
10.08.2020 01:00:00 25,6 19,6 24 13 WNW - 10
10.08.2020 00:00:00 - - - - - - -
09.08.2020 23:00:00 25,9 19,5 22 12 W - 10
09.08.2020 22:00:00 26,1 20,3 21 11 W - 10
09.08.2020 21:00:00 26,2 20,3 29 16 W - 10
09.08.2020 20:00:00 26,6 20,9 29 16 WNW - 10
09.08.2020 19:00:00 27,7 20,9 15 8 WNW - 10
09.08.2020 18:00:00 28,2 21,1 26 14 W - 10
09.08.2020 17:00:00 29,2 21,6 24 13 W - 10
09.08.2020 16:00:00 30,1 21,5 24 13 WNW - 10
09.08.2020 15:00:00 30,3 21,5 16 9 WNW - 10
09.08.2020 14:00:00 31,7 20,1 21 11 W - 10
09.08.2020 13:00:00 31,3 19,0 13 7 WNW - 10
09.08.2020 12:00:00 31,3 18,4 9 5 W - 10
09.08.2020 11:00:00 31,3 17,7 18 10 W - 10

tt = temperature
td = dewpoint
ff = wind speed
dd = wind direction
ppp = reduced air pressure
vv = visibility

Next stations